Location: Shenandoah County Park
(38.9356°N, 78.4524°W)
Time: 03:05:04
(UTC-04:00)

SR - Pass Details

Date: 13 February 2023
Orbit: 583 x 866 km, 66.7° (Epoch: 31 March)

Event Time Altitude Azimuth Distance (km) Brightness Sun altitude
Rises 12:54:26 0° 235° (SW) 3,199 ? 37.4°
Reaches altitude 10° 12:57:11 10° 246° (WSW) 2,226 ? 37.4°
Maximum altitude 13:01:32 29° 306° (NW) 1,271 ? 37.2°
Drops below altitude 10° 13:05:38 10° 7° (N) 2,077 ? 37.1°
Sets 13:08:08 0° 19° (NNE) 2,947 ? 37.0°
